Flag for Canada Weather past 2 weeks in Windsor, Ontario, Canada

Now
63 °F

Partly sunny.


Feels Like: 63 °F
Forecast: 51 / 64 °F
Wind: No wind

Location: Windsor Weather Station

Current Time: Sep 16, 2014 at 1:37:33 PM

Latest Report: Sep 16, 2014 at 1:00 PM


Visibility: 15 mi

Pressure: 30.14 "Hg

Humidity: 59%

Dew point: 48 °F

Location of WindsorLocation

Historic Weather in Windsor — Graph

°F

Windsor temperature yesterday

Maximum temperature yesterday: 59 °F (at 12:00 PM)
Minimum temperature yesterday: 45 °F (at 5:00 AM)
Average temperature yesterday: 54 °F

Past Weeks' High & Low Weather Summary

 TemperatureHumidityPressure
High90 °F (Sep 5, 4:00 PM)100% (Sep 3, 2:00 AM)30.37 "Hg (Sep 3, 2:00 AM)
Low41 °F (Sep 14, 5:00 AM)48% (Sep 14, 5:00 PM)29.59 "Hg (Sep 10, 11:00 PM)
Average64 °F82%30.06 "Hg
* Reported Sep 1 12:00 Noon — Sep 16 12:00 Noon, Windsor, Weather by CustomWeather, © 2014

Note: Actual official high and low records may vary slightly from our data, if they occured in-between our weather recording intervals... More about our weather records

Advertising

Windsor weather history for previous 24 hours

 ConditionsComfort  
Time TempWeatherWind HumidityBarometerVisibility
12:00 PM
Sep 16
61 °FPartly sunny.2 mph63%30.15 "Hg15 mi
11:00 AM59 °FPassing clouds.6 mph72%30.16 "Hg15 mi
10:00 AM57 °FPassing clouds.6 mph77%30.16 "Hg15 mi
9:00 AM54 °FPassing clouds.5 mph82%30.16 "Hg15 mi
8:00 AM52 °FPassing clouds.8 mph88%30.16 "Hg15 mi
7:00 AM50 °FPassing clouds.5 mph94%30.14 "Hg10 mi
6:00 AM52 °FPassing clouds.7 mph94%30.13 "Hg12 mi
5:00 AM54 °FMostly cloudy.10 mph88%30.12 "Hg12 mi
4:00 AM54 °FOvercast.5 mph94%30.11 "Hg10 mi
3:00 AM52 °FPassing clouds.6 mph94%30.11 "Hg12 mi
2:00 AM54 °FPassing clouds.7 mph94%30.09 "Hg10 mi
1:00 AM55 °FPassing clouds.7 mph88%30.09 "Hg12 mi
12:00 AM54 °FPassing clouds.6 mph100%30.09 "Hg25 mi
11:00 PM
Sep 15
55 °FPassing clouds.5 mph94%30.08 "Hg15 mi
10:00 PM55 °FSprinkles. Overcast.6 mph94%30.09 "Hg15 mi
9:00 PM57 °FSprinkles. Overcast.7 mph88%30.09 "Hg12 mi
8:00 PM57 °FSprinkles. Mostly cloudy.7 mph88%30.09 "Hg12 mi
7:00 PM57 °FPartly sunny.5 mph82%30.07 "Hg12 mi
6:00 PM59 °FMostly cloudy.3 mph77%30.07 "Hg15 mi
5:00 PM59 °FOvercast.6 mph72%30.09 "Hg15 mi
4:00 PM59 °FOvercast.8 mph77%30.12 "Hg15 mi
3:00 PM59 °FMostly cloudy.7 mph72%30.12 "Hg15 mi
2:00 PM59 °FOvercast.7 mph72%30.14 "Hg15 mi
1:00 PM59 °FOvercast.5 mph77%30.16 "Hg12 mi
Weather by CustomWeather, © 2014

See weather overviewHow to use our weather pages